#datint,netname,site,siteID,timestamp,IntT,BattV,AirT2,AirT,AirT_Avg,AirT_Max,AirT_Min,RH_Avg,RH_Max,RH_Min,EA_Avg,Td_Avg,Td_Max,Td_Min,WindS_Smp,WindS_Avg,WindD_Avg,WindD_SD,WindS_Max,ETo,ETr,SoilT4,SoilT8,SoilVWC8,SolarW_Avg,wetstate_Avg,wetT_Avg,Precip_accum,Precip_WPG,Precip_TB
15min,AgWx,beryljct,423,17JUN2019:00:00:00,58.6,12.95,56.0,55.9,56.4,57.2,55.9,88,90,85,1.365,52.8,53.2,52.4,9.54,8.0,165,21,11.8,0.00007,0.00009,68.5,68.2,10,0,.,.,16.06,0.01,0.01
15min,AgWx,beryljct,423,17JUN2019:00:15:00,58.1,12.93,56.0,55.7,55.8,56.0,55.7,89,90,88,1.339,52.7,52.9,52.3,9.95,10.7,151,7.9,15.0,0.00008,0.00010,68.3,68.2,10,0,.,.,16.06,0.00,0.00
15min,AgWx,beryljct,423,17JUN2019:00:30:00,57.8,12.93,56.5,56.2,56.0,56.3,55.8,88,89,87,1.358,52.5,53.0,52.1,13.42,11.0,149,15,14.6,0.00010,0.00012,68.1,68.1,10,0,.,.,16.06,0.00,0.00
15min,AgWx,beryljct,423,17JUN2019:00:45:00,57.8,12.91,56.3,56.5,56.4,56.7,56.2,86,88,83,1.313,52.1,52.8,51.7,4.911,10.5,143,11,16.5,0.00012,0.00015,67.9,68.1,9,0,.,.,16.06,0.00,0.00
15min,AgWx,beryljct,423,17JUN2019:01:00:00,57.8,12.91,56.4,56.3,56.3,56.5,56.1,84,86,82,1.281,51.6,52.1,51.1,3.749,5.4,110,23,8.4,0.00006,0.00009,67.7,68.0,10,0,.,.,16.06,0.00,0.00
15min,AgWx,beryljct,423,17JUN2019:01:15:00,57.8,12.89,56.1,56.2,56.4,57.0,56.1,82,85,78,1.290,51.0,51.5,50.0,0.307,3.0,152,82,6.6,0.00001,0.00003,67.5,68.0,9,0,.,.,16.06,0.00,0.00
15min,AgWx,beryljct,423,17JUN2019:01:30:00,57.9,12.91,60.3,58.4,57.0,58.4,56.2,77,85,69,1.145,50.1,51.8,48.2,6.007,2.9,42,60,6.6,0.00003,0.00005,67.3,67.9,10,0,.,.,16.06,0.00,0.00
15min,AgWx,beryljct,423,17JUN2019:01:45:00,58.3,12.9,55.7,55.8,57.9,59.2,55.8,74,87,65,1.320,49.7,52.1,47.4,6.796,5.4,346,74,11.9,0.00015,0.00022,67.1,67.8,10,0,.,.,16.06,0.00,0.00
15min,AgWx,beryljct,423,17JUN2019:02:00:00,58.2,12.89,55.4,55.4,55.6,55.9,55.4,90,90,87,1.344,52.6,52.8,52.1,7.388,8.4,306,14,13.0,0.00005,0.00007,66.9,67.8,10,0,.,.,16.06,0.00,0.00
15min,AgWx,beryljct,423,17JUN2019:02:15:00,58.0,12.89,55.5,55.5,55.5,55.6,55.3,89,91,88,1.333,52.4,52.7,52.1,11.79,9.8,294,30,14.2,0.00007,0.00009,66.7,67.7,9,0,.,.,16.06,0.00,0.00
15min,AgWx,beryljct,423,17JUN2019:02:30:00,57.8,12.89,56.1,56.0,55.7,56.0,55.4,87,89,84,1.293,52.0,52.4,51.3,8.79,8.0,281,11,12.9,0.00007,0.00009,66.6,67.6,9,0,.,.,16.06,0.00,0.00
15min,AgWx,beryljct,423,17JUN2019:02:45:00,57.7,12.88,55.7,55.7,55.8,56.0,55.7,86,87,85,1.323,51.9,52.1,51.5,8.11,7.8,289,8.2,11.1,0.00008,0.00011,66.4,67.5,10,0,.,.,16.06,0.00,0.00
15min,AgWx,beryljct,423,17JUN2019:03:00:00,57.5,12.89,55.7,55.7,55.7,55.8,55.6,88,89,87,1.323,52.1,52.3,52.0,5.152,6.9,296,8.6,9.9,0.00005,0.00007,66.2,67.5,10,0,.,.,16.06,0.00,0.00
15min,AgWx,beryljct,423,17JUN2019:03:15:00,57.4,12.88,55.9,56.2,55.8,56.2,55.5,86,88,84,1.296,51.8,52.2,51.4,3.223,5.3,289,7.7,8.6,0.00004,0.00006,66.1,67.4,9,0,.,.,16.06,0.00,0.00
15min,AgWx,beryljct,423,17JUN2019:03:30:00,57.2,12.87,55.1,55.1,55.6,56.0,55.1,86,88,84,1.305,51.6,51.8,51.4,3.749,3.9,303,4.7,5.1,0.00001,0.00002,65.9,67.3,10,0,.,.,16.06,0.00,0.00
15min,AgWx,beryljct,423,17JUN2019:03:45:00,56.8,12.88,55.1,54.6,55.0,55.2,54.6,88,89,87,1.279,51.5,51.8,51.1,0,1.3,292,5.0,3.5,-0.00008,-0.00010,65.8,67.2,11,0,.,.,16.06,0.00,0.00
15min,AgWx,beryljct,423,17JUN2019:04:00:00,56.2,12.86,53.7,54.2,54.5,55.0,54.2,87,90,85,1.266,50.8,51.3,50.5,4.384,2.4,232,33,4.9,-0.00004,-0.00005,65.6,67.2,10,0,.,.,16.06,0.00,0.00
15min,AgWx,beryljct,423,17JUN2019:04:15:00,55.6,12.86,54.0,53.8,53.5,54.1,53.2,90,91,89,1.255,50.7,50.9,50.5,3.968,4.3,173,11,5.7,-0.00001,-0.00000,65.4,67.1,10,0,.,.,16.05,0.00,0.00
15min,AgWx,beryljct,423,17JUN2019:04:30:00,55.3,12.86,54.7,54.3,54.0,54.3,53.8,89,89,88,1.265,50.7,51.1,50.5,0.504,1.8,252,76,3.5,-0.00006,-0.00008,65.3,67.0,10,0,.,.,16.06,0.00,0.00
15min,AgWx,beryljct,423,17JUN2019:04:45:00,55.1,12.86,53.6,53.5,53.8,54.5,53.2,89,92,86,1.271,50.7,51.1,50.4,2.192,0.8,216,59,3.3,-0.00010,-0.00015,65.1,66.9,10,0,.,.,16.06,0.00,0.00
15min,AgWx,beryljct,423,17JUN2019:05:00:00,54.9,12.86,53.8,53.7,53.6,53.8,53.4,91,92,89,1.259,50.9,51.1,50.6,1.798,1.0,179,7.4,3.0,-0.00010,-0.00014,64.9,66.9,10,0,.,.,16.06,0.00,0.00
15min,AgWx,beryljct,423,17JUN2019:05:15:00,54.6,12.86,52.3,52.4,52.8,53.7,52.4,93,94,90,1.257,50.7,50.9,50.6,1.206,2.7,154,8.9,4.8,-0.00006,-0.00007,64.8,66.8,10,0,.,.,16.06,0.00,0.00
15min,AgWx,beryljct,423,17JUN2019:05:30:00,54.1,12.85,51.5,51.6,51.9,52.4,51.6,95,95,94,1.236,50.4,50.7,50.2,2.981,2.4,170,8.7,3.2,0.00004,0.00006,64.6,66.7,9,0,.,.,16.06,0.00,0.00
15min,AgWx,beryljct,423,17JUN2019:05:45:00,53.6,12.85,51.4,51.3,51.5,51.6,51.3,95,95,95,1.223,50.1,50.3,49.9,1.732,1.7,171,3.0,3.1,0.00003,0.00004,64.5,66.7,10,0,.,.,16.06,0.00,0.00
15min,AgWx,beryljct,423,17JUN2019:06:00:00,53.2,12.85,51.1,51.1,51.2,51.5,51.1,95,95,94,1.200,49.8,50.1,49.4,1.951,2.2,173,4.3,3.1,0.00004,0.00006,64.3,66.6,10,0,.,.,16.06,0.00,0.00
15min,AgWx,beryljct,423,17JUN2019:06:15:00,52.8,12.85,50.6,50.6,51.0,51.2,50.6,94,95,94,1.195,49.4,49.5,49.3,2.126,2.0,159,1.1,2.7,0.00004,0.00006,64.2,66.5,10,1,.,.,16.06,0.00,0.00
15min,AgWx,beryljct,423,17JUN2019:06:30:00,52.3,12.84,49.6,49.6,50.1,50.6,49.6,95,96,95,1.156,48.9,49.3,48.4,3.135,1.8,158,0.0,3.1,0.00006,0.00007,64.1,66.4,10,5,.,.,16.05,0.00,0.00
15min,AgWx,beryljct,423,17JUN2019:06:45:00,51.7,12.84,51.5,51.1,50.2,51.1,49.6,95,96,93,1.184,48.8,49.1,48.4,0,0.8,179,20,3.3,0.00008,0.00009,63.9,66.3,10,11,.,.,16.06,0.00,0.00
15min,AgWx,beryljct,423,17JUN2019:07:00:00,51.3,12.88,51.3,51.2,51.0,51.4,50.5,92,94,91,1.181,48.7,49.2,48.2,2.565,1.4,171,3.3,2.6,0.00017,0.00020,63.7,66.2,9,24,.,.,16.06,0.00,0.00
15min,AgWx,beryljct,423,17JUN2019:07:15:00,51.5,12.88,51.7,51.7,50.8,51.7,50.3,94,95,91,1.232,49.1,50.1,48.3,0,1.9,185,9.5,2.8,0.00051,0.00056,63.6,66.2,10,91,.,.,16.06,0.00,0.00
15min,AgWx,beryljct,423,17JUN2019:07:30:00,52.7,12.88,54.4,54.3,53.0,54.4,51.7,92,94,88,1.276,50.9,51.7,49.8,0,0.2,205,13,1.1,0.00083,0.00089,63.4,66.1,10,157,.,.,16.06,0.00,0.00
15min,AgWx,beryljct,423,17JUN2019:07:45:00,54.9,12.9,56.3,56.1,55.1,56.1,54.3,88,90,84,1.293,51.6,52.5,51.0,2.126,0.9,296,40,2.7,0.00111,0.00121,63.3,66.0,9,208,.,.,16.05,0.00,0.00
15min,AgWx,beryljct,423,17JUN2019:08:00:00,57.2,12.94,58.1,57.8,57.1,57.8,56.2,81,85,75,1.233,51.2,51.9,50.0,0.986,1.3,347,1.6,2.4,0.00148,0.00162,63.1,65.9,10,268,.,.,16.05,0.00,0.00
15min,AgWx,beryljct,423,17JUN2019:08:15:00,59.9,12.96,59.5,59.5,58.7,59.5,57.8,73,76,70,1.220,50.1,51.3,49.2,0,0.1,346,0.0,0.9,0.00177,0.00190,63.0,65.8,9,315,.,.,16.05,0.00,0.00
15min,AgWx,beryljct,423,17JUN2019:08:30:00,62.6,13,59.9,60.2,59.9,60.2,59.2,71,73,68,1.222,50.3,51.3,49.4,0,0.5,97,23,1.8,0.00215,0.00232,63.0,65.7,10,373,.,.,16.05,0.00,0.00
15min,AgWx,beryljct,423,17JUN2019:08:45:00,65.1,13.08,61.9,61.2,60.8,61.3,60.2,69,72,67,1.271,50.5,52.2,49.3,0,0.6,100,3.3,1.9,0.00257,0.00278,62.9,65.7,10,440,.,.,16.05,0.00,0.00
15min,AgWx,beryljct,423,17JUN2019:09:00:00,67.5,13.27,61.6,61.9,61.9,62.3,61.3,69,72,63,1.191,51.5,52.7,49.2,1.074,0.8,61,21,2.9,0.00309,0.00334,63.0,65.6,10,520,.,.,16.04,0.00,0.00
15min,AgWx,beryljct,423,17JUN2019:09:15:00,68.7,13.41,62.5,63.2,62.3,63.2,61.9,64,67,63,1.307,50.1,51.7,49.2,0.899,0.4,31,8.7,2.5,0.00234,0.00253,63.1,65.5,10,378,.,.,16.05,0.00,0.00
15min,AgWx,beryljct,423,17JUN2019:09:30:00,70.0,13.58,64.4,63.7,63.5,64.0,62.8,64,68,61,1.227,51.2,52.6,50.0,0.68,1.9,78,47,5.2,0.00345,0.00381,63.2,65.4,9,561,.,.,16.04,0.00,0.00
15min,AgWx,beryljct,423,17JUN2019:09:45:00,71.0,13.99,65.2,64.9,64.1,64.9,63.8,61,65,58,1.317,50.4,52.6,49.1,2.916,3.0,56,22,5.7,0.00377,0.00425,63.3,65.4,9,605,.,.,16.04,0.00,0.00
15min,AgWx,beryljct,423,17JUN2019:10:00:00,72.2,14.08,66.8,66.1,65.2,66.1,64.6,60,63,58,1.335,50.8,52.4,49.5,2.587,1.3,43,40,3.2,0.00403,0.00440,63.6,65.3,9,640,.,.,16.04,0.00,0.00
15min,AgWx,beryljct,423,17JUN2019:10:15:00,74.1,14.07,65.4,66.1,65.9,66.4,65.5,59,62,57,1.281,51.2,52.8,50.0,1.403,1.8,91,26,4.2,0.00458,0.00504,63.8,65.2,9,721,.,.,16.03,0.00,0.00
15min,AgWx,beryljct,423,17JUN2019:10:30:00,75.4,14.06,68.1,67.3,66.7,67.4,66.0,59,62,56,1.303,51.9,53.5,50.6,0.417,1.7,89,68,3.9,0.00494,0.00542,64.1,65.1,9,777,.,.,16.03,0.00,0.00
15min,AgWx,beryljct,423,17JUN2019:10:45:00,77.0,14.05,68.1,68.0,68.1,69.4,67.3,55,58,51,1.290,51.3,52.9,50.1,3.266,1.7,109,54,5.6,0.00520,0.00571,64.4,65.1,9,799,.,.,16.03,0.00,0.00
15min,AgWx,beryljct,423,17JUN2019:11:00:00,77.7,13.98,69.1,69.0,68.6,69.2,68.0,51,57,47,1.268,50.0,52.3,47.6,1.206,1.3,60,73,3.5,0.00449,0.00493,64.8,65.0,9,674,.,.,16.02,0.00,0.00
15min,AgWx,beryljct,423,17JUN2019:11:15:00,77.7,13.97,68.5,69.5,69.0,69.9,68.3,51,55,48,1.191,50.0,52.4,48.6,1.754,2.1,71,52,4.7,0.00425,0.00476,65.2,65.0,9,626,.,.,16.02,0.00,0.00
15min,AgWx,beryljct,423,17JUN2019:11:30:00,78.1,14.03,71.3,70.4,70.0,70.5,69.4,49,52,47,1.245,50.1,51.5,48.9,3.003,1.9,93,24,5.0,0.00503,0.00558,65.6,65.0,9,741,.,.,16.02,0.00,0.00
15min,AgWx,beryljct,423,17JUN2019:11:45:00,78.6,13.93,72.9,72.4,71.6,72.4,70.4,47,54,43,1.293,50.1,53.9,48.0,2.411,3.0,173,69,7.3,0.00521,0.00590,66.0,64.9,9,752,.,.,16.01,0.00,0.00
15min,AgWx,beryljct,423,17JUN2019:12:00:00,78.9,13.99,72.2,72.9,72.9,73.8,72.2,45,51,41,1.271,50.5,53.9,47.2,5.524,5.5,174,31,9.3,0.00507,0.00603,66.4,64.9,9,683,.,.,16.02,0.00,0.00
15min,AgWx,beryljct,423,17JUN2019:12:15:00,78.6,13.92,72.8,73.6,73.3,74.6,72.7,43,48,40,1.205,49.6,52.1,47.3,3.661,3.8,187,41,8.9,0.00475,0.00554,66.9,65.0,9,643,.,.,16.02,0.00,0.00
15min,AgWx,beryljct,423,17JUN2019:12:30:00,78.5,13.55,71.8,72.2,72.8,73.9,72.2,46,50,42,1.181,50.7,52.9,48.4,2.083,6.6,143,20,11.6,0.00545,0.00653,67.3,65.0,9,744,.,.,16.01,0.00,0.00
15min,AgWx,beryljct,423,17JUN2019:12:45:00,78.3,13.54,74.2,74.2,73.1,74.2,72.1,44,49,37,1.116,49.7,52.5,46.5,9.69,7.0,120,22,14.7,0.00583,0.00701,67.7,65.0,9,801,.,.,16.02,0.00,0.00
15min,AgWx,beryljct,423,17JUN2019:13:00:00,78.4,13.52,74.2,74.3,74.5,75.2,73.9,39,43,35,1.062,48.2,50.6,45.4,5.305,7.2,139,16,11.8,0.00635,0.00767,68.1,65.1,9,864,.,.,16.02,0.00,0.00
15min,AgWx,beryljct,423,17JUN2019:13:15:00,79.4,13.51,74.6,75.9,75.5,76.8,74.4,33,41,26,0.804,44.6,49.9,38.8,2.762,5.7,152,32,10.6,0.00757,0.00888,68.5,65.1,9,1057,.,.,16.02,0.00,0.00
15min,AgWx,beryljct,423,17JUN2019:13:30:00,81.2,13.48,76.5,77.6,76.9,77.6,75.6,27,32,24,0.891,40.1,44.5,37.0,7.344,2.7,183,44,7.6,0.00756,0.00853,68.9,65.2,9,1069,.,.,16.01,0.00,0.00
15min,AgWx,beryljct,423,17JUN2019:13:45:00,82.7,13.46,79.1,78.6,77.7,78.7,76.8,26,31,24,0.861,40.5,45.5,37.3,5.502,4.2,192,45,9.5,0.00782,0.00904,69.4,65.3,10,1078,.,.,16.01,0.00,0.00
15min,AgWx,beryljct,423,17JUN2019:14:00:00,83.8,13.46,77.6,78.5,78.7,79.3,78.1,27,33,23,0.850,41.9,47.2,37.7,3.354,5.0,212,27,8.0,0.00753,0.00886,69.8,65.4,9,1013,.,.,16.01,0.00,0.00
15min,AgWx,beryljct,423,17JUN2019:14:15:00,84.1,13.53,77.0,78.0,78.2,78.7,77.6,29,35,23,0.824,42.8,48.7,37.2,4.187,5.9,123,36,15.7,0.00750,0.00892,70.4,65.5,10,1009,.,.,16.01,0.00,0.00
15min,AgWx,beryljct,423,17JUN2019:14:30:00,84.3,13.45,79.5,80.2,79.0,80.4,77.7,27,34,23,1.045,42.1,47.9,37.2,6.862,5.9,185,60,10.5,0.00741,0.00886,71.0,65.6,9,979,.,.,16.01,0.00,0.00
15min,AgWx,beryljct,423,17JUN2019:14:45:00,84.1,13.44,77.0,77.2,78.6,80.5,77.2,28,33,26,0.958,43.2,47.8,39.7,8.37,7.5,180,41,18.5,0.00435,0.00581,71.5,65.7,10,425,.,.,16.01,0.00,0.00
15min,AgWx,beryljct,423,17JUN2019:15:00:00,81.7,13.52,74.7,75.8,76.6,77.4,75.8,31,36,28,1.091,43.8,46.9,42.1,1.907,8.7,161,23,15.4,0.00303,0.00449,72.0,65.8,9,184,.,.,16.02,0.01,0.00
15min,AgWx,beryljct,423,17JUN2019:15:15:00,79.9,13.56,75.9,76.4,76.2,76.9,75.2,33,42,28,0.961,44.8,50.7,40.9,3.924,5.9,212,40,17.6,0.00243,0.00345,72.5,66.0,9,174,.,.,16.02,0.00,0.00
15min,AgWx,beryljct,423,17JUN2019:15:30:00,78.5,13.58,73.6,73.3,74.2,76.3,71.7,35,40,31,1.011,45.0,48.1,41.9,1.096,5.2,281,66,10.7,0.00213,0.00301,72.7,66.1,9,156,.,.,16.02,0.00,0.00
15min,AgWx,beryljct,423,17JUN2019:15:45:00,76.9,13.62,71.1,71.4,72.4,73.6,71.2,38,43,33,1.023,45.7,48.2,43.1,12.23,6.8,39,24,12.2,0.00184,0.00281,72.9,66.3,9,94,.,.,16.03,0.00,0.00
15min,AgWx,beryljct,423,17JUN2019:16:00:00,73.7,13.42,62.4,63.3,67.1,71.4,63.3,53,64,39,1.275,49.0,51.1,45.2,15.59,16.4,29,11,24.0,0.00211,0.00347,73.0,66.4,10,62,.,.,16.03,0.01,0.00
15min,AgWx,beryljct,423,17JUN2019:16:15:00,69.7,13.33,63.2,63.8,63.5,64.6,62.7,60,64,56,1.238,49.5,51.1,48.4,4.932,11.2,31,16,19.1,0.00143,0.00225,73.0,66.6,9,69,.,.,16.04,0.00,0.00
15min,AgWx,beryljct,423,17JUN2019:16:30:00,67.7,13.26,63.1,63.3,63.2,63.8,62.7,64,69,61,1.266,50.8,52.6,49.6,0,4.5,313,26,7.6,0.00071,0.00108,72.9,66.7,10,41,.,.,16.05,0.02,0.01
15min,AgWx,beryljct,423,17JUN2019:16:45:00,65.6,13.24,62.9,62.7,62.9,63.3,62.4,67,74,62,1.384,51.8,54.2,50.0,5.678,2.7,121,67,5.7,0.00058,0.00079,72.7,66.9,10,51,.,.,16.06,0.00,0.00
15min,AgWx,beryljct,423,17JUN2019:17:00:00,64.7,13.19,61.2,61.6,62.9,64.0,61.6,70,76,65,1.315,52.8,55.0,51.8,6.73,5.2,278,23,10.4,0.00064,0.00098,72.5,67.0,10,35,.,.,16.06,0.00,0.00
15min,AgWx,beryljct,423,17JUN2019:17:15:00,63.7,13.18,61.1,61.0,61.3,61.7,60.8,72,74,68,1.299,52.0,52.7,50.8,8.83,7.3,335,34,10.7,0.00071,0.00112,72.3,67.2,10,34,.,.,16.07,0.01,0.00
15min,AgWx,beryljct,423,17JUN2019:17:30:00,62.6,13.23,60.7,61.1,61.2,61.4,60.7,71,74,68,1.320,51.6,52.5,50.9,12.65,9.7,359,12,14.3,0.00093,0.00145,72.0,67.3,10,50,.,.,16.07,0.00,0.00
15min,AgWx,beryljct,423,17JUN2019:17:45:00,62.1,13.26,60.7,60.6,60.4,61.1,60.1,76,78,72,1.318,52.7,53.2,51.9,10.33,9.6,36,21,13.9,0.00089,0.00133,71.8,67.4,10,65,.,.,16.07,0.00,0.00
15min,AgWx,beryljct,423,17JUN2019:18:00:00,62.4,13.28,63.5,63.0,62.2,63.8,60.6,65,73,57,1.223,50.3,52.1,48.3,4.341,6.5,54,21,13.4,0.00098,0.00145,71.5,67.5,10,67,.,.,16.07,0.00,0.00
15min,AgWx,beryljct,423,17JUN2019:18:15:00,63.0,13.37,61.9,61.9,62.4,63.1,61.9,67,72,61,1.360,51.4,53.0,49.5,5.108,4.2,51,13,6.7,0.00087,0.00119,71.3,67.6,10,85,.,.,16.07,0.00,0.00
15min,AgWx,beryljct,423,17JUN2019:18:30:00,63.5,13.3,61.8,62.0,62.2,62.7,61.8,65,73,62,1.182,50.5,53.3,49.0,13.09,10.0,19,15,17.8,0.00125,0.00189,71.0,67.6,10,113,.,.,16.08,0.00,0.00
15min,AgWx,beryljct,423,17JUN2019:18:45:00,63.8,13.26,61.9,61.9,61.8,62.0,61.6,62,63,60,1.150,48.6,49.2,48.1,16.22,13.7,3.9,13,17.5,0.00146,0.00233,70.7,67.7,10,116,.,.,16.08,0.00,0.00
15min,AgWx,beryljct,423,17JUN2019:19:00:00,63.8,13.29,62.1,61.8,61.7,61.9,61.5,62,63,61,1.154,48.6,49.1,48.1,12.28,11.8,10,8.0,16.9,0.00122,0.00199,70.5,67.8,10,100,.,.,16.07,0.00,0.00
15min,AgWx,beryljct,423,17JUN2019:19:15:00,63.7,13.23,61.9,62.0,61.8,62.3,61.5,62,64,59,1.156,48.7,49.4,47.9,6.029,7.3,33,12,11.8,0.00073,0.00126,70.2,67.8,10,79,.,.,16.07,0.00,0.00
15min,AgWx,beryljct,423,17JUN2019:19:30:00,63.5,13.18,62.7,62.3,62.0,62.3,61.9,61,62,59,1.127,48.4,49.1,47.7,2.565,3.7,49,21,6.8,0.00020,0.00049,70.0,67.8,10,64,.,.,16.07,0.00,0.00
15min,AgWx,beryljct,423,17JUN2019:19:45:00,63.4,13.15,61.5,61.5,61.7,62.4,61.5,65,68,58,1.212,49.8,50.9,47.6,8.81,4.8,172,22,9.8,0.00018,0.00050,69.7,67.8,10,51,.,.,16.07,0.00,0.00
15min,AgWx,beryljct,423,17JUN2019:20:00:00,63.1,13.13,61.4,60.9,60.9,61.5,60.7,71,74,65,1.265,51.5,52.4,49.7,2.433,4.8,196,19,8.2,0.00005,0.00031,69.5,67.8,10,37,.,.,16.07,0.00,0.00
15min,AgWx,beryljct,423,17JUN2019:20:15:00,62.9,13.1,60.9,61.1,61.3,61.7,61.0,68,71,63,1.284,50.6,51.6,48.9,4.165,4.9,182,12,6.3,0.00037,0.00050,69.3,67.8,10,28,.,.,16.07,0.00,0.00
15min,AgWx,beryljct,423,17JUN2019:20:30:00,62.7,13.09,61.1,60.9,61.0,61.3,60.9,70,71,68,1.298,51.3,51.6,50.6,4.253,4.1,180,5.7,5.3,0.00030,0.00042,69.1,67.8,10,22,.,.,16.07,0.00,0.00
15min,AgWx,beryljct,423,17JUN2019:20:45:00,62.5,13.06,61.8,61.7,61.1,61.8,60.7,69,72,64,1.209,50.8,51.7,49.5,2.916,3.9,205,13,5.9,0.00028,0.00040,68.9,67.8,10,13,.,.,16.07,0.00,0.00
15min,AgWx,beryljct,423,17JUN2019:21:00:00,62.5,13.05,61.0,61.7,61.8,62.1,61.4,63,66,61,1.183,49.2,49.9,48.5,3.946,4.5,208,7.3,5.6,0.00034,0.00047,68.7,67.8,10,3,.,.,16.07,0.00,0.00
15min,AgWx,beryljct,423,17JUN2019:21:15:00,62.6,13.04,63.7,63.6,62.7,63.6,61.4,58,64,54,1.088,47.5,49.3,46.7,6.993,4.1,227,19,8.6,0.00037,0.00052,68.5,67.7,10,0,.,.,16.07,0.00,0.00
15min,AgWx,beryljct,423,17JUN2019:21:30:00,62.9,13.03,63.6,63.8,63.5,64.1,63.1,55,57,52,1.078,46.9,47.9,45.8,5.152,5.7,265,14,8.8,0.00049,0.00066,68.3,67.7,10,0,.,.,16.07,0.00,0.00
15min,AgWx,beryljct,423,17JUN2019:21:45:00,63.3,13.03,61.9,61.6,63.0,63.8,61.2,57,65,53,1.143,47.3,49.3,46.3,6.599,5.2,311,49,9.0,0.00044,0.00060,68.1,67.6,10,0,.,.,16.07,0.00,0.00
15min,AgWx,beryljct,423,17JUN2019:22:00:00,63.3,13.02,63.1,62.6,62.7,63.3,61.7,57,61,54,1.097,47.1,48.2,46.3,4.691,6.0,340,19,10.3,0.00047,0.00063,67.9,67.6,10,0,.,.,16.06,0.00,0.00
15min,AgWx,beryljct,423,17JUN2019:22:15:00,62.9,13.02,61.2,60.8,61.8,62.7,60.8,60,64,56,1.157,47.9,48.6,46.9,2.302,2.5,328,32,4.7,0.00024,0.00036,67.8,67.6,10,0,.,.,16.07,0.00,0.00
15min,AgWx,beryljct,423,17JUN2019:22:30:00,62.1,13.01,59.3,58.6,60.2,61.4,58.4,66,75,61,1.197,48.9,50.5,47.7,4.713,2.7,336,35,4.8,0.00021,0.00031,67.6,67.5,9,0,.,.,16.06,0.00,0.00
15min,AgWx,beryljct,423,17JUN2019:22:45:00,61.2,13,58.1,58.0,58.5,59.5,58.0,73,77,67,1.246,50.0,51.0,48.3,6.927,2.9,298,33,6.9,0.00017,0.00025,67.4,67.5,10,0,.,.,16.06,0.00,0.00
15min,AgWx,beryljct,423,17JUN2019:23:00:00,60.3,13,56.3,56.6,57.1,58.0,56.3,79,82,75,1.247,50.8,51.2,50.0,2.368,3.4,320,31,7.0,0.00014,0.00021,67.2,67.4,10,0,.,.,16.07,0.00,0.00
15min,AgWx,beryljct,423,17JUN2019:23:15:00,59.2,12.98,57.4,56.4,56.8,58.0,56.0,78,82,73,1.247,50.2,50.7,49.4,1.381,1.2,11,74,4.0,0.00007,0.00011,67.0,67.4,10,0,.,.,16.07,0.00,0.00
15min,AgWx,beryljct,423,17JUN2019:23:30:00,58.2,12.97,58.0,57.3,57.7,58.5,55.9,72,81,68,1.137,48.6,50.3,47.5,3.135,2.5,267,13,3.1,0.00016,0.00023,66.8,67.3,10,0,.,.,16.07,0.00,0.00
15min,AgWx,beryljct,423,17JUN2019:23:45:00,57.7,12.97,57.8,56.4,57.9,60.1,55.6,69,76,61,1.135,47.6,48.5,46.6,3.814,3.9,7.0,31,5.3,0.00024,0.00033,66.7,67.3,10,0,.,.,16.07,0.00,0.00
15min,AgWx,beryljct,423,18JUN2019:00:00:00,57.2,12.95,57.1,56.7,56.7,57.9,55.1,72,78,68,1.123,47.8,48.7,47.4,3.42,3.2,307,27,4.8,0.00018,0.00026,66.5,67.2,10,0,.,.,16.07,0.00,0.00
15min,AgWx,beryljct,423,18JUN2019:00:15:00,56.6,12.95,53.9,54.7,55.4,56.7,54.2,76,81,71,1.129,47.9,48.4,47.6,1.863,2.6,346,71,5.5,0.00014,0.00020,66.3,67.2,10,0,.,.,16.07,0.00,0.00
15min,AgWx,beryljct,423,18JUN2019:00:30:00,55.9,12.94,54.4,54.1,54.5,56.1,53.8,78,81,72,1.142,47.9,48.3,47.3,0,0.7,53,0.8,2.3,0.00005,0.00007,66.1,67.1,10,0,.,.,16.07,0.00,0.00
15min,AgWx,beryljct,423,18JUN2019:00:45:00,55.2,12.94,53.6,54.3,54.5,55.0,53.3,78,82,76,1.129,47.9,48.1,47.4,1.293,0.8,53,0.4,1.6,0.00005,0.00007,65.9,67.0,9,0,.,.,16.07,0.00,0.00
15min,AgWx,bigpiney,439,17JUN2019:00:00:00,54.5,12.79,49.5,49.3,49.4,49.6,49.2,68,69,67,0.811,39.3,39.6,39.1,4.45,5.1,301,11,6.6,0.00004,0.00007,55.6,50.8,55,0,0,0.0,3.38,0.00,0.00
15min,AgWx,bigpiney,439,17JUN2019:00:15:00,54.0,12.79,49.2,49.3,49.4,49.7,49.1,68,68,66,0.815,39.1,39.3,38.9,2.411,3.7,307,12,6.7,-0.00002,-0.00001,55.6,50.8,55,0,0,0.0,3.38,0.00,0.00
15min,AgWx,bigpiney,439,17JUN2019:00:30:00,53.5,12.78,48.6,48.6,48.9,49.3,48.6,69,71,68,0.830,39.3,39.7,38.9,2.499,3.3,299,16,5.3,-0.00005,-0.00005,55.5,50.8,55,0,0,0.0,3.38,0.00,0.00
15min,AgWx,bigpiney,439,17JUN2019:00:45:00,53.1,12.77,49.8,49.8,49.2,50.1,48.4,69,72,64,0.801,39.3,40.0,38.5,2.784,3.2,275,7.3,4.9,-0.00006,-0.00005,55.5,50.8,55,0,0,0.0,3.38,0.00,0.00
15min,AgWx,bigpiney,439,17JUN2019:01:00:00,52.7,12.76,47.7,47.4,48.0,49.8,46.8,72,76,66,0.814,39.4,39.7,38.8,2.411,2.7,239,18,3.6,-0.00010,-0.00011,55.4,50.8,55,0,0,0.0,3.38,0.00,0.00
15min,AgWx,bigpiney,439,17JUN2019:01:15:00,52.1,12.75,44.0,43.9,45.1,47.4,43.9,82,86,73,0.835,39.8,40.3,39.3,3.486,3.6,204,15,5.3,-0.00009,-0.00010,55.4,50.9,55,0,0,0.0,3.38,0.00,0.00
15min,AgWx,bigpiney,439,17JUN2019:01:30:00,51.3,12.74,45.2,44.7,44.3,44.7,43.8,84,86,82,0.825,39.9,40.2,39.5,3.661,3.6,236,8.0,4.6,-0.00011,-0.00012,55.3,50.8,55,0,0,0.0,3.38,0.00,0.00
15min,AgWx,bigpiney,439,17JUN2019:01:45:00,50.7,12.73,46.2,45.6,45.0,45.6,44.6,80,82,78,0.812,39.4,39.7,39.1,5.217,5.1,243,9.9,6.8,-0.00004,-0.00004,55.3,50.9,55,0,0,0.0,3.38,0.00,0.00
15min,AgWx,bigpiney,439,17JUN2019:02:00:00,50.2,12.72,46.3,46.0,45.8,46.0,45.6,77,78,76,0.804,39.1,39.2,38.9,4.669,4.8,248,10,6.4,-0.00003,-0.00002,55.2,50.9,55,0,0,0.0,3.38,0.00,0.00
15min,AgWx,bigpiney,439,17JUN2019:02:15:00,49.9,12.71,45.9,45.9,46.3,46.7,45.7,75,77,73,0.804,38.7,38.9,38.6,4.012,4.5,244,13,6.3,-0.00003,-0.00001,55.1,50.9,55,0,0,0.0,3.38,0.00,0.00
15min,AgWx,bigpiney,439,17JUN2019:02:30:00,49.8,12.7,46.0,45.7,46.0,46.4,45.6,76,78,75,0.796,39.0,39.3,38.6,4.538,4.3,239,12,6.5,-0.00005,-0.00004,55.1,50.9,55,0,0,0.0,3.38,0.00,0.00
15min,AgWx,bigpiney,439,17JUN2019:02:45:00,49.6,12.69,44.6,44.7,45.2,46.0,44.6,78,80,76,0.798,38.8,39.0,38.6,3.946,4.1,226,8.1,5.9,-0.00006,-0.00006,55.0,50.9,55,0,0,0.0,3.38,0.00,0.00
15min,AgWx,bigpiney,439,17JUN2019:03:00:00,49.4,12.69,45.1,45.1,44.9,45.2,44.4,79,80,78,0.794,38.7,38.9,38.6,2.959,4.3,228,11,6.5,-0.00006,-0.00005,54.9,50.9,55,0,0,0.0,3.38,0.00,0.00
15min,AgWx,bigpiney,439,17JUN2019:03:15:00,49.1,12.67,44.6,45.5,45.2,45.9,44.7,78,81,76,0.798,38.8,39.3,38.5,4.713,1.9,251,55,4.7,-0.00017,-0.00021,54.8,50.9,55,0,0,0.0,3.38,0.00,0.00
15min,AgWx,bigpiney,439,17JUN2019:03:30:00,48.9,12.66,43.2,43.2,43.7,45.3,43.2,83,85,77,0.803,38.8,39.0,38.5,2.894,4.0,203,21,6.0,-0.00008,-0.00009,54.7,50.9,55,0,0,0.0,3.38,0.00,0.00
15min,AgWx,bigpiney,439,17JUN2019:03:45:00,48.4,12.66,42.4,42.5,42.9,43.2,42.5,86,87,85,0.802,39.0,39.2,38.7,4.099,2.7,205,27,5.0,-0.00014,-0.00017,54.6,50.9,55,0,0,0.0,3.38,0.00,0.00
15min,AgWx,bigpiney,439,17JUN2019:04:00:00,47.9,12.64,42.9,42.9,42.9,43.2,42.3,86,87,84,0.796,38.9,39.2,38.5,1.995,2.5,203,28,4.6,-0.00015,-0.00018,54.5,50.9,55,0,0,0.0,3.38,0.00,0.00
15min,AgWx,bigpiney,439,17JUN2019:04:15:00,47.5,12.63,42.5,42.1,42.4,42.8,42.0,87,88,85,0.799,38.8,39.0,38.6,3.354,3.1,213,10,4.1,-0.00013,-0.00016,54.4,50.9,55,0,0,0.0,3.38,0.00,0.00
15min,AgWx,bigpiney,439,17JUN2019:04:30:00,47.1,12.63,42.4,42.1,41.9,42.2,41.6,88,90,88,0.805,38.7,39.1,38.4,1.995,2.4,241,28,3.3,-0.00016,-0.00020,54.4,50.9,55,0,0,0.0,3.38,0.00,0.00
15min,AgWx,bigpiney,439,17JUN2019:04:45:00,46.8,12.61,41.2,41.1,41.8,42.3,41.1,88,89,88,0.779,38.7,39.2,38.0,2.302,1.8,276,17,3.4,-0.00019,-0.00025,54.3,50.9,55,0,0,0.0,3.38,0.00,0.00
15min,AgWx,bigpiney,439,17JUN2019:05:00:00,46.4,12.6,41.3,41.1,41.2,41.4,41.0,90,91,89,0.795,38.6,39.0,38.1,1.403,1.6,276,32,2.8,-0.00019,-0.00026,54.2,50.9,55,0,0,0.0,3.38,0.00,0.00
15min,AgWx,bigpiney,439,17JUN2019:05:15:00,45.9,12.59,41.3,41.0,41.0,41.2,40.8,91,92,91,0.801,38.7,38.8,38.6,0,0.7,268,52,1.6,-0.00024,-0.00035,54.1,50.9,55,0,0,0.0,3.38,0.00,0.00
15min,AgWx,bigpiney,439,17JUN2019:05:30:00,45.6,12.58,41.4,41.0,41.1,41.3,41.0,92,92,91,0.805,38.9,39.2,38.6,0.855,1.2,260,20,1.9,-0.00021,-0.00030,54.0,50.8,55,0,0,0.0,3.38,0.00,0.00
15min,AgWx,bigpiney,439,17JUN2019:05:45:00,45.2,12.57,41.1,40.8,41.1,41.3,40.8,92,92,91,0.796,38.9,39.1,38.5,0.723,1.3,246,24,2.3,-0.00021,-0.00029,53.9,50.8,55,2,0,0.0,3.38,0.00,0.00
15min,AgWx,bigpiney,439,17JUN2019:06:00:00,45.0,12.57,42.9,42.1,41.1,42.1,40.1,90,93,86,0.785,38.5,39.2,37.9,3.135,1.5,297,46,3.6,-0.00021,-0.00021,53.8,50.8,55,9,1,0.0,3.38,0.00,0.00
15min,AgWx,bigpiney,439,17JUN2019:06:15:00,44.8,12.59,40.2,40.3,41.5,42.5,40.2,86,88,84,0.748,37.5,38.3,37.0,2.653,2.9,332,10,3.9,-0.00011,-0.00006,53.7,50.8,55,22,0,0.0,3.38,0.00,0.00
15min,AgWx,bigpiney,439,17JUN2019:06:30:00,44.7,12.61,40.5,40.1,40.0,40.2,39.9,90,92,88,0.773,37.4,37.9,36.9,1.556,1.5,314,14,2.9,-0.00005,-0.00003,53.6,50.8,55,42,0,0.0,3.38,0.00,0.00
15min,AgWx,bigpiney,439,17JUN2019:06:45:00,44.7,12.66,42.0,41.5,40.7,41.5,40.1,92,92,91,0.811,38.5,39.2,37.9,1.14,2.1,312,9.7,3.2,0.00010,0.00013,53.6,50.8,55,66,0,0.0,3.38,0.00,0.00
15min,AgWx,bigpiney,439,17JUN2019:07:00:00,44.9,12.71,43.7,43.1,42.3,43.1,41.4,91,92,90,0.853,39.9,40.6,39.1,2.258,1.6,313,11,2.9,0.00024,0.00027,53.4,50.8,55,87,0,0.0,3.38,0.00,0.00